Погода в Родовом

Россия / Псковская область     57°22′27″N   27°57′14″E
темп.,
°C
ветер,
м/с
пор.,
м/с
влажн.,
%
обл.,
%
осадки,
мм/ч
давл.,
гПа
погр.,
м
18 июня, пт
пт1800:00+16ююв2267100 0.0 102519
03:00+14ю33806 0.0 102534
06:00+15ююз257976 0.0 1024103
09:00+21ююз356236 0.0 1024395
12:00+25ююз45505 0.0 10241168
15:00+27ююз46455 0.0 10231578
18:00+27юз46515 0.0 1021988
21:00+21ю35751 0.0 102188
19 июня, сб
сб1900:00+17ююз36845 0.0 102291
03:00+16ююз35910 0.0 102389
06:00+17ююз26890 0.0 1023148
09:00+22ююз46665 0.0 1023488
12:00+26ююз46490 0.0 10221392
15:00+28ююз46430 0.0 10211703
18:00+27юз35500 0.0 10201090
21:00+23ююз34750 0.0 102070
20 июня, вс
вс2000:00+19ююз35820 0.0 102085
03:00+17ююз36920 0.0 1020110
06:00+18ю279085 0.0 1020180
09:00+23ююз46675 0.0 1020493
12:00+27ююз45550 0.0 10191448
15:00+29ююз46473 0.0 10182139
18:00+29юз355284 0.0 10171084
21:00+23юз23760 0.0 101736
21 июня, пн
пн2100:00+20ю33882 0.6 101841
03:00+19ю23953 3.0 101859
06:00+19ююв25955 0.0 1018131
09:00+24ююв35765 0.0 1018554
12:00+28ююв455565 0.0 10171392
15:00+30юв464540 0.0 10161780
18:00+29юв3653100 0.0 1015795
21:00+23вюв4107114 0.0 1015208
22 июня, вт
вт2200:00+20юв38735 0.0 1015132
03:00+19юв31180100 0.0 1015249
06:00+20юв398985 0.0 1015280
09:00+24ююв577369 0.0 1015719
12:00+28ю685438 0.0 10141911
15:00+31ю584529 0.0 10142305
18:00+27ююз366480 0.0 1014338
21:00+24ююз25855 1.3 101498